owner,sensor,date,latitude,longitude,vertical_datum,sea_water_practical_salinity,qcFlag 
DISL,ioos:station:DISL:KATA:1,2016-03-01T00:00:00Z,30.2583,-88.2131,4.003,23.57,1111122 
DISL,ioos:station:DISL:KATA:1,2016-03-01T00:30:00Z,30.2583,-88.2131,3.971,23.43,1111122 
DISL,ioos:station:DISL:KATA:1,2016-03-01T01:00:00Z,30.2583,-88.2131,3.943,23.02,1111122 
DISL,ioos:station:DISL:KATA:1,2016-03-01T01:30:00Z,30.2583,-88.2131,3.911,22.72,1111122 
DISL,ioos:station:DISL:KATA:1,2016-03-01T02:00:00Z,30.2583,-88.2131,3.889,21.74,1111122 
DISL,ioos:station:DISL:KATA:1,2016-03-01T02:30:00Z,30.2583,-88.2131,3.862,22.46,1111122 
DISL,ioos:station:DISL:KATA:1,2016-03-01T03:00:00Z,30.2583,-88.2131,3.837,22.24,1111122 
DISL,ioos:station:DISL:KATA:1,2016-03-01T03:30:00Z,30.2583,-88.2131,3.815,22.31,1111122 
DISL,ioos:station:DISL:KATA:1,2016-03-01T04:00:00Z,30.2583,-88.2131,3.814,22.23,1111122 
DISL,ioos:station:DISL:KATA:1,2016-03-01T04:30:00Z,30.2583,-88.2131,3.808,22.36,1111122 
DISL,ioos:station:DISL:KATA:1,2016-03-01T05:00:00Z,30.2583,-88.2131,3.801,22.14,1111122 
DISL,ioos:station:DISL:KATA:1,2016-03-01T05:30:00Z,30.2583,-88.2131,3.798,22.61,1111122 
DISL,ioos:station:DISL:KATA:1,2016-03-01T06:00:00Z,30.2583,-88.2131,3.801,22.95,1111122 
DISL,ioos:station:DISL:KATA:1,2016-03-01T06:30:00Z,30.2583,-88.2131,3.8,24.18,1111122 
DISL,ioos:station:DISL:KATA:1,2016-03-01T07:00:00Z,30.2583,-88.2131,3.805,25.05,1111122 
DISL,ioos:station:DISL:KATA:1,2016-03-01T07:30:00Z,30.2583,-88.2131,3.805,25.19,1111122 
DISL,ioos:station:DISL:KATA:1,2016-03-01T08:00:00Z,30.2583,-88.2131,3.815,25.25,1111122 
DISL,ioos:station:DISL:KATA:1,2016-03-01T08:30:00Z,30.2583,-88.2131,3.816,25.6,1111122 
DISL,ioos:station:DISL:KATA:1,2016-03-01T09:00:00Z,30.2583,-88.2131,3.816,25.85,1111122 
DISL,ioos:station:DISL:KATA:1,2016-03-01T09:30:00Z,30.2583,-88.2131,3.824,25.86,1111122 
DISL,ioos:station:DISL:KATA:1,2016-03-01T10:00:00Z,30.2583,-88.2131,3.831,25.84,1111122 
DISL,ioos:station:DISL:KATA:1,2016-03-01T10:30:00Z,30.2583,-88.2131,3.842,25.89,1111122 
DISL,ioos:station:DISL:KATA:1,2016-03-01T11:00:00Z,30.2583,-88.2131,3.866,25.74,1111122 
DISL,ioos:station:DISL:KATA:1,2016-03-01T11:30:00Z,30.2583,-88.2131,3.887,25.5,1111122 
DISL,ioos:station:DISL:KATA:1,2016-03-01T12:00:00Z,30.2583,-88.2131,3.913,26.22,1111122 
DISL,ioos:station:DISL:KATA:1,2016-03-01T12:30:00Z,30.2583,-88.2131,3.932,26.34,1111122 
DISL,ioos:station:DISL:KATA:1,2016-03-01T13:00:00Z,30.2583,-88.2131,3.954,26.44,1111122 
DISL,ioos:station:DISL:KATA:1,2016-03-01T13:30:00Z,30.2583,-88.2131,3.982,26.33,1111122 
DISL,ioos:station:DISL:KATA:1,2016-03-01T14:00:00Z,30.2583,-88.2131,4.004,26.24,1111122 
DISL,ioos:station:DISL:KATA:1,2016-03-01T14:30:00Z,30.2583,-88.2131,4.016,26.38,1111122 
DISL,ioos:station:DISL:KATA:1,2016-03-01T15:00:00Z,30.2583,-88.2131,4.029,26.67,1111122 
DISL,ioos:station:DISL:KATA:1,2016-03-01T15:30:00Z,30.2583,-88.2131,4.047,26.71,1111122 
DISL,ioos:station:DISL:KATA:1,2016-03-01T16:00:00Z,30.2583,-88.2131,4.066,26.65,1111122 
DISL,ioos:station:DISL:KATA:1,2016-03-01T16:30:00Z,30.2583,-88.2131,4.089,26.69,1111122 
DISL,ioos:station:DISL:KATA:1,2016-03-01T17:00:00Z,30.2583,-88.2131,4.118,26.6,1111122 
DISL,ioos:station:DISL:KATA:1,2016-03-01T17:30:00Z,30.2583,-88.2131,4.137,26.87,1111122 
DISL,ioos:station:DISL:KATA:1,2016-03-01T18:00:00Z,30.2583,-88.2131,4.162,26.88,1111122 
DISL,ioos:station:DISL:KATA:1,2016-03-01T18:30:00Z,30.2583,-88.2131,4.182,26.9,1111122 
DISL,ioos:station:DISL:KATA:1,2016-03-01T19:00:00Z,30.2583,-88.2131,4.191,26.82,1111122 
DISL,ioos:station:DISL:KATA:1,2016-03-01T19:30:00Z,30.2583,-88.2131,4.205,26.79,1111122 
DISL,ioos:station:DISL:KATA:1,2016-03-01T20:00:00Z,30.2583,-88.2131,4.201,26.82,1111122 
DISL,ioos:station:DISL:KATA:1,2016-03-01T20:30:00Z,30.2583,-88.2131,4.206,26.68,1111122 
DISL,ioos:station:DISL:KATA:1,2016-03-01T21:00:00Z,30.2583,-88.2131,4.197,26.63,1111122 
DISL,ioos:station:DISL:KATA:1,2016-03-01T21:30:00Z,30.2583,-88.2131,4.189,26.44,1111122 
DISL,ioos:station:DISL:KATA:1,2016-03-01T22:00:00Z,30.2583,-88.2131,4.183,26.26,1111122 
DISL,ioos:station:DISL:KATA:1,2016-03-01T22:30:00Z,30.2583,-88.2131,4.173,25.78,1111122 
DISL,ioos:station:DISL:KATA:1,2016-03-01T23:00:00Z,30.2583,-88.2131,4.176,25.19,1111122 
DISL,ioos:station:DISL:KATA:1,2016-03-01T23:30:00Z,30.2583,-88.2131,4.164,24.26,1111122 
DISL,ioos:station:DISL:KATA:1,2016-03-02T00:00:00Z,30.2583,-88.2131,4.162,23.59,1111122 
DISL,ioos:station:DISL:KATA:1,2016-03-02T00:30:00Z,30.2583,-88.2131,4.145,22.71,1111122 
DISL,ioos:station:DISL:KATA:1,2016-03-02T01:00:00Z,30.2583,-88.2131,4.135,23.05,1111122 
DISL,ioos:station:DISL:KATA:1,2016-03-02T01:30:00Z,30.2583,-88.2131,4.132,23.12,1111122 
DISL,ioos:station:DISL:KATA:1,2016-03-02T02:00:00Z,30.2583,-88.2131,4.104,22.9,1111122 
DISL,ioos:station:DISL:KATA:1,2016-03-02T02:30:00Z,30.2583,-88.2131,4.091,22.61,1111122 
DISL,ioos:station:DISL:KATA:1,2016-03-02T03:00:00Z,30.2583,-88.2131,4.073,22.14,1111122 
DISL,ioos:station:DISL:KATA:1,2016-03-02T03:30:00Z,30.2583,-88.2131,4.041,22.26,1111122 
DISL,ioos:station:DISL:KATA:1,2016-03-02T04:00:00Z,30.2583,-88.2131,4.029,22.05,1111122 
DISL,ioos:station:DISL:KATA:1,2016-03-02T04:30:00Z,30.2583,-88.2131,4.028,22.05,1111122 
DISL,ioos:station:DISL:KATA:1,2016-03-02T05:00:00Z,30.2583,-88.2131,4.003,21.73,1111122 
DISL,ioos:station:DISL:KATA:1,2016-03-02T05:30:00Z,30.2583,-88.2131,3.978,21.35,1111122 
DISL,ioos:station:DISL:KATA:1,2016-03-02T06:00:00Z,30.2583,-88.2131,3.94,21.03,1111122 
DISL,ioos:station:DISL:KATA:1,2016-03-02T06:30:00Z,30.2583,-88.2131,3.864,20.15,1111122 
DISL,ioos:station:DISL:KATA:1,2016-03-02T07:00:00Z,30.2583,-88.2131,3.845,19.77,1111122 
DISL,ioos:station:DISL:KATA:1,2016-03-02T07:30:00Z,30.2583,-88.2131,3.89,18.39,1111122 
DISL,ioos:station:DISL:KATA:1,2016-03-02T08:00:00Z,30.2583,-88.2131,3.805,18.94,1111122 
DISL,ioos:station:DISL:KATA:1,2016-03-02T08:30:00Z,30.2583,-88.2131,3.752,18.68,1111122 
DISL,ioos:station:DISL:KATA:1,2016-03-02T09:00:00Z,30.2583,-88.2131,3.699,17.35,1111122 
DISL,ioos:station:DISL:KATA:1,2016-03-02T09:30:00Z,30.2583,-88.2131,3.646,16.28,1111122 
DISL,ioos:station:DISL:KATA:1,2016-03-02T10:00:00Z,30.2583,-88.2131,3.639,16.58,1111122 
DISL,ioos:station:DISL:KATA:1,2016-03-02T10:30:00Z,30.2583,-88.2131,3.631,16.67,1111122 
DISL,ioos:station:DISL:KATA:1,2016-03-02T11:00:00Z,30.2583,-88.2131,3.62,17.05,1111122 
DISL,ioos:station:DISL:KATA:1,2016-03-02T11:30:00Z,30.2583,-88.2131,3.59,14.73,1111122 
DISL,ioos:station:DISL:KATA:1,2016-03-02T12:00:00Z,30.2583,-88.2131,3.586,15.47,1111122 
DISL,ioos:station:DISL:KATA:1,2016-03-02T12:30:00Z,30.2583,-88.2131,3.577,16.47,1111122 
DISL,ioos:station:DISL:KATA:1,2016-03-02T13:00:00Z,30.2583,-88.2131,3.608,15.51,1111122 
DISL,ioos:station:DISL:KATA:1,2016-03-02T13:30:00Z,30.2583,-88.2131,3.656,15.54,1111122 
DISL,ioos:station:DISL:KATA:1,2016-03-02T14:00:00Z,30.2583,-88.2131,3.717,16.37,1111122 
DISL,ioos:station:DISL:KATA:1,2016-03-02T14:30:00Z,30.2583,-88.2131,3.794,16.55,1111122 
DISL,ioos:station:DISL:KATA:1,2016-03-02T15:00:00Z,30.2583,-88.2131,3.849,16.28,1111122 
DISL,ioos:station:DISL:KATA:1,2016-03-02T15:30:00Z,30.2583,-88.2131,3.883,15.86,1111122 
DISL,ioos:station:DISL:KATA:1,2016-03-02T16:00:00Z,30.2583,-88.2131,3.914,15.86,1111122 
DISL,ioos:station:DISL:KATA:1,2016-03-02T16:30:00Z,30.2583,-88.2131,3.929,15.54,1111122 
DISL,ioos:station:DISL:KATA:1,2016-03-02T17:00:00Z,30.2583,-88.2131,3.957,15.41,1111122 
DISL,ioos:station:DISL:KATA:1,2016-03-02T17:30:00Z,30.2583,-88.2131,3.988,15.6,1111122 
DISL,ioos:station:DISL:KATA:1,2016-03-02T18:00:00Z,30.2583,-88.2131,4.012,15.92,1111122 
DISL,ioos:station:DISL:KATA:1,2016-03-02T18:30:00Z,30.2583,-88.2131,4.05,16.22,1111122 
DISL,ioos:station:DISL:KATA:1,2016-03-02T19:00:00Z,30.2583,-88.2131,4.078,16.47,1111122 
DISL,ioos:station:DISL:KATA:1,2016-03-02T19:30:00Z,30.2583,-88.2131,4.103,16.75,1111122 
DISL,ioos:station:DISL:KATA:1,2016-03-02T20:00:00Z,30.2583,-88.2131,4.129,17.1,1111122 
DISL,ioos:station:DISL:KATA:1,2016-03-02T20:30:00Z,30.2583,-88.2131,4.148,17.31,1111122 
DISL,ioos:station:DISL:KATA:1,2016-03-02T21:00:00Z,30.2583,-88.2131,4.153,17.52,1111122 
DISL,ioos:station:DISL:KATA:1,2016-03-02T21:30:00Z,30.2583,-88.2131,4.15,17.49,1111122 
DISL,ioos:station:DISL:KATA:1,2016-03-02T22:00:00Z,30.2583,-88.2131,4.15,17.43,1111122 
DISL,ioos:station:DISL:KATA:1,2016-03-02T22:30:00Z,30.2583,-88.2131,4.139,17.46,1111122 
DISL,ioos:station:DISL:KATA:1,2016-03-02T23:00:00Z,30.2583,-88.2131,4.135,17.27,1111122 
DISL,ioos:station:DISL:KATA:1,2016-03-02T23:30:00Z,30.2583,-88.2131,4.121,17.41,1111122 
DISL,ioos:station:DISL:KATA:1,2016-03-03T00:00:00Z,30.2583,-88.2131,4.112,17.31,1111122 
DISL,ioos:station:DISL:KATA:1,2016-03-03T00:30:00Z,30.2583,-88.2131,4.102,17.57,1111122 
DISL,ioos:station:DISL:KATA:1,2016-03-03T01:00:00Z,30.2583,-88.2131,4.073,17.71,1111122 
DISL,ioos:station:DISL:KATA:1,2016-03-03T01:30:00Z,30.2583,-88.2131,4.04,17.73,1111122 
DISL,ioos:station:DISL:KATA:1,2016-03-03T02:00:00Z,30.2583,-88.2131,4.0,17.86,1111122 
DISL,ioos:station:DISL:KATA:1,2016-03-03T02:30:00Z,30.2583,-88.2131,3.971,17.89,1111122 
DISL,ioos:station:DISL:KATA:1,2016-03-03T03:00:00Z,30.2583,-88.2131,3.93,17.84,1111122 
DISL,ioos:station:DISL:KATA:1,2016-03-03T03:30:00Z,30.2583,-88.2131,3.891,17.78,1111122 
DISL,ioos:station:DISL:KATA:1,2016-03-03T04:00:00Z,30.2583,-88.2131,3.856,17.74,1111122 
DISL,ioos:station:DISL:KATA:1,2016-03-03T04:30:00Z,30.2583,-88.2131,3.818,17.73,1111122 
DISL,ioos:station:DISL:KATA:1,2016-03-03T05:00:00Z,30.2583,-88.2131,3.798,17.75,1111122 
DISL,ioos:station:DISL:KATA:1,2016-03-03T05:30:00Z,30.2583,-88.2131,3.769,17.84,1111122 
DISL,ioos:station:DISL:KATA:1,2016-03-03T06:00:00Z,30.2583,-88.2131,3.753,17.95,1111122 
DISL,ioos:station:DISL:KATA:1,2016-03-03T06:30:00Z,30.2583,-88.2131,3.738,18.0,1111122 
DISL,ioos:station:DISL:KATA:1,2016-03-03T07:00:00Z,30.2583,-88.2131,3.731,18.08,1111122 
DISL,ioos:station:DISL:KATA:1,2016-03-03T07:30:00Z,30.2583,-88.2131,3.73,18.31,1111122 
DISL,ioos:station:DISL:KATA:1,2016-03-03T08:00:00Z,30.2583,-88.2131,3.726,18.35,1111122 
DISL,ioos:station:DISL:KATA:1,2016-03-03T08:30:00Z,30.2583,-88.2131,3.724,18.36,1111122 
DISL,ioos:station:DISL:KATA:1,2016-03-03T09:00:00Z,30.2583,-88.2131,3.721,18.35,1111122 
DISL,ioos:station:DISL:KATA:1,2016-03-03T09:30:00Z,30.2583,-88.2131,3.719,18.3,1111122 
DISL,ioos:station:DISL:KATA:1,2016-03-03T10:00:00Z,30.2583,-88.2131,3.741,18.25,1111122 
DISL,ioos:station:DISL:KATA:1,2016-03-03T10:30:00Z,30.2583,-88.2131,3.766,18.3,1111122 
DISL,ioos:station:DISL:KATA:1,2016-03-03T11:00:00Z,30.2583,-88.2131,3.802,18.27,1111122 
DISL,ioos:station:DISL:KATA:1,2016-03-03T11:30:00Z,30.2583,-88.2131,3.842,18.24,1111122 
DISL,ioos:station:DISL:KATA:1,2016-03-03T12:00:00Z,30.2583,-88.2131,3.857,18.26,1111122 
DISL,ioos:station:DISL:KATA:1,2016-03-03T12:30:00Z,30.2583,-88.2131,3.893,18.27,1111122 
DISL,ioos:station:DISL:KATA:1,2016-03-03T13:00:00Z,30.2583,-88.2131,3.899,19.97,1111122 
DISL,ioos:station:DISL:KATA:1,2016-03-03T13:30:00Z,30.2583,-88.2131,3.907,21.31,1111122 
DISL,ioos:station:DISL:KATA:1,2016-03-03T14:00:00Z,30.2583,-88.2131,3.923,22.35,1111122 
DISL,ioos:station:DISL:KATA:1,2016-03-03T14:30:00Z,30.2583,-88.2131,3.955,23.02,1111122 
DISL,ioos:station:DISL:KATA:1,2016-03-03T15:00:00Z,30.2583,-88.2131,3.995,23.63,1111122 
DISL,ioos:station:DISL:KATA:1,2016-03-03T15:30:00Z,30.2583,-88.2131,4.011,23.87,1111122 
DISL,ioos:station:DISL:KATA:1,2016-03-03T16:00:00Z,30.2583,-88.2131,4.018,23.76,1111122 
DISL,ioos:station:DISL:KATA:1,2016-03-03T16:30:00Z,30.2583,-88.2131,3.996,23.82,1111122 
DISL,ioos:station:DISL:KATA:1,2016-03-03T17:00:00Z,30.2583,-88.2131,4.0,24.06,1111122 
DISL,ioos:station:DISL:KATA:1,2016-03-03T17:30:00Z,30.2583,-88.2131,4.007,24.26,1111122 
DISL,ioos:station:DISL:KATA:1,2016-03-03T18:00:00Z,30.2583,-88.2131,4.026,24.47,1111122 
DISL,ioos:station:DISL:KATA:1,2016-03-03T18:30:00Z,30.2583,-88.2131,4.051,24.66,1111122 
DISL,ioos:station:DISL:KATA:1,2016-03-03T19:00:00Z,30.2583,-88.2131,4.058,24.83,1111122 
DISL,ioos:station:DISL:KATA:1,2016-03-03T19:30:00Z,30.2583,-88.2131,4.06,24.99,1111122 
DISL,ioos:station:DISL:KATA:1,2016-03-03T20:00:00Z,30.2583,-88.2131,4.082,25.3,1111122 
DISL,ioos:station:DISL:KATA:1,2016-03-03T20:30:00Z,30.2583,-88.2131,4.12,25.73,1111122 
DISL,ioos:station:DISL:KATA:1,2016-03-03T21:00:00Z,30.2583,-88.2131,4.177,26.26,1111122 
DISL,ioos:station:DISL:KATA:1,2016-03-03T21:30:00Z,30.2583,-88.2131,4.218,26.49,1111122 
DISL,ioos:station:DISL:KATA:1,2016-03-03T22:00:00Z,30.2583,-88.2131,4.25,26.57,1111122 
DISL,ioos:station:DISL:KATA:1,2016-03-03T22:30:00Z,30.2583,-88.2131,4.275,26.59,1111122 
DISL,ioos:station:DISL:KATA:1,2016-03-03T23:00:00Z,30.2583,-88.2131,4.29,26.56,1111122 
DISL,ioos:station:DISL:KATA:1,2016-03-03T23:30:00Z,30.2583,-88.2131,4.32,26.63,1111122 
DISL,ioos:station:DISL:KATA:1,2016-03-04T00:00:00Z,30.2583,-88.2131,4.332,26.63,1111122 
DISL,ioos:station:DISL:KATA:1,2016-03-04T00:30:00Z,30.2583,-88.2131,4.384,26.43,1111122 
DISL,ioos:station:DISL:KATA:1,2016-03-04T01:00:00Z,30.2583,-88.2131,4.354,26.35,1111122 
DISL,ioos:station:DISL:KATA:1,2016-03-04T01:30:00Z,30.2583,-88.2131,4.341,26.02,1111122 
DISL,ioos:station:DISL:KATA:1,2016-03-04T02:00:00Z,30.2583,-88.2131,4.325,23.89,1111122 
DISL,ioos:station:DISL:KATA:1,2016-03-04T02:30:00Z,30.2583,-88.2131,4.238,23.42,1111122 
DISL,ioos:station:DISL:KATA:1,2016-03-04T03:00:00Z,30.2583,-88.2131,4.205,23.09,1111122 
DISL,ioos:station:DISL:KATA:1,2016-03-04T03:30:00Z,30.2583,-88.2131,4.058,22.54,1111122 
DISL,ioos:station:DISL:KATA:1,2016-03-04T04:00:00Z,30.2583,-88.2131,3.981,21.16,1111122 
DISL,ioos:station:DISL:KATA:1,2016-03-04T04:30:00Z,30.2583,-88.2131,3.915,20.65,1111122 
DISL,ioos:station:DISL:KATA:1,2016-03-04T05:00:00Z,30.2583,-88.2131,3.828,20.23,1111122 
DISL,ioos:station:DISL:KATA:1,2016-03-04T05:30:00Z,30.2583,-88.2131,3.762,20.4,1111122 
DISL,ioos:station:DISL:KATA:1,2016-03-04T06:00:00Z,30.2583,-88.2131,3.702,19.62,1111122 
DISL,ioos:station:DISL:KATA:1,2016-03-04T06:30:00Z,30.2583,-88.2131,3.631,18.7,1111122 
DISL,ioos:station:DISL:KATA:1,2016-03-04T07:00:00Z,30.2583,-88.2131,3.563,18.08,1111122 
DISL,ioos:station:DISL:KATA:1,2016-03-04T07:30:00Z,30.2583,-88.2131,3.54,17.83,1111122 
DISL,ioos:station:DISL:KATA:1,2016-03-04T08:00:00Z,30.2583,-88.2131,3.5,18.39,1111122 
DISL,ioos:station:DISL:KATA:1,2016-03-04T08:30:00Z,30.2583,-88.2131,3.504,16.53,1111122 
DISL,ioos:station:DISL:KATA:1,2016-03-04T09:00:00Z,30.2583,-88.2131,3.525,15.52,1111122 
DISL,ioos:station:DISL:KATA:1,2016-03-04T09:30:00Z,30.2583,-88.2131,3.566,15.84,1111122 
DISL,ioos:station:DISL:KATA:1,2016-03-04T10:00:00Z,30.2583,-88.2131,3.584,18.65,1111122 
DISL,ioos:station:DISL:KATA:1,2016-03-04T10:30:00Z,30.2583,-88.2131,3.625,18.99,1111122 
DISL,ioos:station:DISL:KATA:1,2016-03-04T11:00:00Z,30.2583,-88.2131,3.635,18.63,1111122 
DISL,ioos:station:DISL:KATA:1,2016-03-04T11:30:00Z,30.2583,-88.2131,3.665,18.53,1111122 
DISL,ioos:station:DISL:KATA:1,2016-03-04T12:00:00Z,30.2583,-88.2131,3.687,18.15,1111122 
DISL,ioos:station:DISL:KATA:1,2016-03-04T12:30:00Z,30.2583,-88.2131,3.697,18.02,1111122 
DISL,ioos:station:DISL:KATA:1,2016-03-04T13:00:00Z,30.2583,-88.2131,3.707,17.77,1111122 
DISL,ioos:station:DISL:KATA:1,2016-03-04T13:30:00Z,30.2583,-88.2131,3.705,17.75,1111122 
DISL,ioos:station:DISL:KATA:1,2016-03-04T14:00:00Z,30.2583,-88.2131,3.721,17.87,1111122 
DISL,ioos:station:DISL:KATA:1,2016-03-04T14:30:00Z,30.2583,-88.2131,3.719,18.53,1111122 
DISL,ioos:station:DISL:KATA:1,2016-03-04T15:00:00Z,30.2583,-88.2131,3.735,18.58,1111122 
DISL,ioos:station:DISL:KATA:1,2016-03-04T15:30:00Z,30.2583,-88.2131,3.763,18.51,1111122 
DISL,ioos:station:DISL:KATA:1,2016-03-04T16:00:00Z,30.2583,-88.2131,3.798,18.5,1111122 
DISL,ioos:station:DISL:KATA:1,2016-03-04T16:30:00Z,30.2583,-88.2131,3.828,18.24,1111122 
DISL,ioos:station:DISL:KATA:1,2016-03-04T17:00:00Z,30.2583,-88.2131,3.877,18.2,1111122 
DISL,ioos:station:DISL:KATA:1,2016-03-04T17:30:00Z,30.2583,-88.2131,3.931,18.23,1111122 
DISL,ioos:station:DISL:KATA:1,2016-03-04T18:00:00Z,30.2583,-88.2131,3.943,18.32,1111122 
DISL,ioos:station:DISL:KATA:1,2016-03-04T18:30:00Z,30.2583,-88.2131,3.982,18.38,1111122 
DISL,ioos:station:DISL:KATA:1,2016-03-04T19:00:00Z,30.2583,-88.2131,4.025,18.44,1111122 
DISL,ioos:station:DISL:KATA:1,2016-03-04T19:30:00Z,30.2583,-88.2131,4.054,18.36,1111122 
DISL,ioos:station:DISL:KATA:1,2016-03-04T20:00:00Z,30.2583,-88.2131,4.095,18.24,1111122 
DISL,ioos:station:DISL:KATA:1,2016-03-04T20:30:00Z,30.2583,-88.2131,4.119,18.21,1111122 
DISL,ioos:station:DISL:KATA:1,2016-03-04T21:00:00Z,30.2583,-88.2131,4.144,18.2,1111122 
DISL,ioos:station:DISL:KATA:1,2016-03-04T21:30:00Z,30.2583,-88.2131,4.174,17.99,1111122 
DISL,ioos:station:DISL:KATA:1,2016-03-04T22:00:00Z,30.2583,-88.2131,4.191,17.9,1111122 
DISL,ioos:station:DISL:KATA:1,2016-03-04T22:30:00Z,30.2583,-88.2131,4.202,17.91,1111122 
DISL,ioos:station:DISL:KATA:1,2016-03-04T23:00:00Z,30.2583,-88.2131,4.208,18.03,1111122 
DISL,ioos:station:DISL:KATA:1,2016-03-04T23:30:00Z,30.2583,-88.2131,4.21,18.04,1111122 
DISL,ioos:station:DISL:KATA:1,2016-03-05T00:00:00Z,30.2583,-88.2131,4.187,18.0,1111122 
DISL,ioos:station:DISL:KATA:1,2016-03-05T00:30:00Z,30.2583,-88.2131,4.173,18.18,1111122 
DISL,ioos:station:DISL:KATA:1,2016-03-05T01:00:00Z,30.2583,-88.2131,4.152,18.53,1111122 
DISL,ioos:station:DISL:KATA:1,2016-03-05T01:30:00Z,30.2583,-88.2131,4.123,18.68,1111122 
DISL,ioos:station:DISL:KATA:1,2016-03-05T02:00:00Z,30.2583,-88.2131,4.098,18.77,1111122 
DISL,ioos:station:DISL:KATA:1,2016-03-05T02:30:00Z,30.2583,-88.2131,4.068,18.79,1111122 
DISL,ioos:station:DISL:KATA:1,2016-03-05T03:00:00Z,30.2583,-88.2131,4.047,18.71,1111122 
DISL,ioos:station:DISL:KATA:1,2016-03-05T03:30:00Z,30.2583,-88.2131,4.016,18.41,1111122 
DISL,ioos:station:DISL:KATA:1,2016-03-05T04:00:00Z,30.2583,-88.2131,3.987,18.16,1111122 
DISL,ioos:station:DISL:KATA:1,2016-03-05T04:30:00Z,30.2583,-88.2131,3.951,17.81,1111122 
DISL,ioos:station:DISL:KATA:1,2016-03-05T05:00:00Z,30.2583,-88.2131,3.897,17.55,1111122 
DISL,ioos:station:DISL:KATA:1,2016-03-05T05:30:00Z,30.2583,-88.2131,3.862,17.41,1111122 
DISL,ioos:station:DISL:KATA:1,2016-03-05T06:00:00Z,30.2583,-88.2131,3.818,17.28,1111122 
DISL,ioos:station:DISL:KATA:1,2016-03-05T06:30:00Z,30.2583,-88.2131,3.756,17.28,1111122 
DISL,ioos:station:DISL:KATA:1,2016-03-05T07:00:00Z,30.2583,-88.2131,3.699,17.13,1111122 
DISL,ioos:station:DISL:KATA:1,2016-03-05T07:30:00Z,30.2583,-88.2131,3.664,16.94,1111122 
DISL,ioos:station:DISL:KATA:1,2016-03-05T08:00:00Z,30.2583,-88.2131,3.618,17.42,1111122 
DISL,ioos:station:DISL:KATA:1,2016-03-05T08:30:00Z,30.2583,-88.2131,3.586,17.58,1111122 
DISL,ioos:station:DISL:KATA:1,2016-03-05T09:00:00Z,30.2583,-88.2131,3.562,17.22,1111122 
DISL,ioos:station:DISL:KATA:1,2016-03-05T09:30:00Z,30.2583,-88.2131,3.562,17.42,1111122 
DISL,ioos:station:DISL:KATA:1,2016-03-05T10:00:00Z,30.2583,-88.2131,3.573,20.41,1111122 
DISL,ioos:station:DISL:KATA:1,2016-03-05T10:30:00Z,30.2583,-88.2131,3.595,20.55,1111122 
DISL,ioos:station:DISL:KATA:1,2016-03-05T11:00:00Z,30.2583,-88.2131,3.625,20.69,1111122 
DISL,ioos:station:DISL:KATA:1,2016-03-05T11:30:00Z,30.2583,-88.2131,3.65,20.76,1111122 
DISL,ioos:station:DISL:KATA:1,2016-03-05T12:00:00Z,30.2583,-88.2131,3.678,20.93,1111122 
DISL,ioos:station:DISL:KATA:1,2016-03-05T12:30:00Z,30.2583,-88.2131,3.697,21.17,1111122 
DISL,ioos:station:DISL:KATA:1,2016-03-05T13:00:00Z,30.2583,-88.2131,3.707,21.37,1111122 
DISL,ioos:station:DISL:KATA:1,2016-03-05T13:30:00Z,30.2583,-88.2131,3.726,21.46,1111122 
DISL,ioos:station:DISL:KATA:1,2016-03-05T14:00:00Z,30.2583,-88.2131,3.741,21.59,1111122 
DISL,ioos:station:DISL:KATA:1,2016-03-05T14:30:00Z,30.2583,-88.2131,3.759,21.68,1111122 
DISL,ioos:station:DISL:KATA:1,2016-03-05T15:00:00Z,30.2583,-88.2131,3.79,21.84,1111122 
DISL,ioos:station:DISL:KATA:1,2016-03-05T15:30:00Z,30.2583,-88.2131,3.826,21.98,1111122 
DISL,ioos:station:DISL:KATA:1,2016-03-05T16:00:00Z,30.2583,-88.2131,3.859,22.0,1111122 
DISL,ioos:station:DISL:KATA:1,2016-03-05T16:30:00Z,30.2583,-88.2131,3.89,22.09,1111122 
DISL,ioos:station:DISL:KATA:1,2016-03-05T17:00:00Z,30.2583,-88.2131,3.91,22.17,1111122 
DISL,ioos:station:DISL:KATA:1,2016-03-05T17:30:00Z,30.2583,-88.2131,3.934,22.19,1111122 
DISL,ioos:station:DISL:KATA:1,2016-03-05T18:00:00Z,30.2583,-88.2131,3.959,22.18,1111122 
DISL,ioos:station:DISL:KATA:1,2016-03-05T18:30:00Z,30.2583,-88.2131,3.979,22.53,1111122 
DISL,ioos:station:DISL:KATA:1,2016-03-05T19:00:00Z,30.2583,-88.2131,3.999,22.75,1111122 
DISL,ioos:station:DISL:KATA:1,2016-03-05T19:30:00Z,30.2583,-88.2131,4.026,22.85,1111122 
DISL,ioos:station:DISL:KATA:1,2016-03-05T20:00:00Z,30.2583,-88.2131,4.052,22.94,1111122 
DISL,ioos:station:DISL:KATA:1,2016-03-05T20:30:00Z,30.2583,-88.2131,4.075,22.91,1111122 
DISL,ioos:station:DISL:KATA:1,2016-03-05T21:00:00Z,30.2583,-88.2131,4.098,22.77,1111122 
DISL,ioos:station:DISL:KATA:1,2016-03-05T21:30:00Z,30.2583,-88.2131,4.117,22.63,1111122 
DISL,ioos:station:DISL:KATA:1,2016-03-05T22:00:00Z,30.2583,-88.2131,4.144,22.63,1111122 
DISL,ioos:station:DISL:KATA:1,2016-03-05T22:30:00Z,30.2583,-88.2131,4.165,22.56,1111122 
DISL,ioos:station:DISL:KATA:1,2016-03-05T23:00:00Z,30.2583,-88.2131,4.181,22.7,1111122 
DISL,ioos:station:DISL:KATA:1,2016-03-05T23:30:00Z,30.2583,-88.2131,4.185,23.26,1111122 
DISL,ioos:station:DISL:KATA:1,2016-03-06T00:00:00Z,30.2583,-88.2131,4.181,23.44,1111122 
DISL,ioos:station:DISL:KATA:1,2016-03-06T00:30:00Z,30.2583,-88.2131,4.17,23.48,1111122 
DISL,ioos:station:DISL:KATA:1,2016-03-06T01:00:00Z,30.2583,-88.2131,4.157,23.58,1111122 
DISL,ioos:station:DISL:KATA:1,2016-03-06T01:30:00Z,30.2583,-88.2131,4.156,23.71,1111122 
DISL,ioos:station:DISL:KATA:1,2016-03-06T02:00:00Z,30.2583,-88.2131,4.147,23.69,1111122 
DISL,ioos:station:DISL:KATA:1,2016-03-06T02:30:00Z,30.2583,-88.2131,4.126,23.62,1111122 
DISL,ioos:station:DISL:KATA:1,2016-03-06T03:00:00Z,30.2583,-88.2131,4.11,23.49,1111122 
DISL,ioos:station:DISL:KATA:1,2016-03-06T03:30:00Z,30.2583,-88.2131,4.083,23.34,1111122 
DISL,ioos:station:DISL:KATA:1,2016-03-06T04:00:00Z,30.2583,-88.2131,4.042,23.18,1111122 
DISL,ioos:station:DISL:KATA:1,2016-03-06T04:30:00Z,30.2583,-88.2131,4.004,22.9,1111122 
DISL,ioos:station:DISL:KATA:1,2016-03-06T05:00:00Z,30.2583,-88.2131,3.954,22.6,1111122 
DISL,ioos:station:DISL:KATA:1,2016-03-06T05:30:00Z,30.2583,-88.2131,3.914,22.47,1111122 
DISL,ioos:station:DISL:KATA:1,2016-03-06T06:00:00Z,30.2583,-88.2131,3.865,22.4,1111122 
DISL,ioos:station:DISL:KATA:1,2016-03-06T06:30:00Z,30.2583,-88.2131,3.817,22.08,1111122 
DISL,ioos:station:DISL:KATA:1,2016-03-06T07:00:00Z,30.2583,-88.2131,3.775,22.1,1111122 
DISL,ioos:station:DISL:KATA:1,2016-03-06T07:30:00Z,30.2583,-88.2131,3.732,22.12,1111122 
DISL,ioos:station:DISL:KATA:1,2016-03-06T08:00:00Z,30.2583,-88.2131,3.682,22.07,1111122 
DISL,ioos:station:DISL:KATA:1,2016-03-06T08:30:00Z,30.2583,-88.2131,3.642,22.01,1111122 
DISL,ioos:station:DISL:KATA:1,2016-03-06T09:00:00Z,30.2583,-88.2131,3.642,22.01,1111122 
DISL,ioos:station:DISL:KATA:1,2016-03-06T09:30:00Z,30.2583,-88.2131,3.59,22.02,1111122 
DISL,ioos:station:DISL:KATA:1,2016-03-06T10:00:00Z,30.2583,-88.2131,3.568,21.87,1111122 
DISL,ioos:station:DISL:KATA:1,2016-03-06T10:30:00Z,30.2583,-88.2131,3.558,22.02,1111122 
DISL,ioos:station:DISL:KATA:1,2016-03-06T11:00:00Z,30.2583,-88.2131,3.551,22.0,1111122 
DISL,ioos:station:DISL:KATA:1,2016-03-06T11:30:00Z,30.2583,-88.2131,3.544,21.83,1111122 
DISL,ioos:station:DISL:KATA:1,2016-03-06T12:00:00Z,30.2583,-88.2131,3.532,21.86,1111122 
DISL,ioos:station:DISL:KATA:1,2016-03-06T12:30:00Z,30.2583,-88.2131,3.535,21.97,1111122 
DISL,ioos:station:DISL:KATA:1,2016-03-06T13:00:00Z,30.2583,-88.2131,3.541,22.1,1111122 
DISL,ioos:station:DISL:KATA:1,2016-03-06T13:30:00Z,30.2583,-88.2131,3.563,22.68,1111122 
DISL,ioos:station:DISL:KATA:1,2016-03-06T14:00:00Z,30.2583,-88.2131,3.59,22.86,1111122 